When you browse on this site, cookies collect data to enhance your experience and personalize the content and advertising you see.
Visit our Privacy Policy to learn more. By continuing to use the site, you agree to this use of cookies and data.
  • en Suisse
  • Liste des pays
  • À 7 jours
  • Température de l'eau
  • Carte satellitaire
  • Carte météo
  • Widgets météo
  • user-avatar
    Se connecter

    Météo par heure à Algérie

    Ce jour, 20 Janvier, Dimanche

    Heure Température Précipitation Vent Pression Humidité
    00:00 +10°C° 0 mm 3 m/s 748 mmHg 67%
    01:00 +10°C° 0 mm 3 m/s 747 mmHg 66%
    02:00 +10°C° 0 mm 4 m/s 747 mmHg 65%
    03:00 +10°C° 0 mm 4 m/s 746 mmHg 65%
    04:00 +10°C° 0 mm 4 m/s 746 mmHg 66%
    05:00 +10°C° 0 mm 4 m/s 745 mmHg 67%
    06:00 +10°C° 0 mm 4 m/s 745 mmHg 68%
    07:00 +10°C° 0.7 mm 4 m/s 745 mmHg 71%
    08:00 +9°C° 0.7 mm 5 m/s 744 mmHg 74%
    09:00 +10°C° 0.7 mm 5 m/s 744 mmHg 78%
    10:00 +10°C° 1.7 mm 5 m/s 744 mmHg 78%
    11:00 +11°C° 1.7 mm 4 m/s 744 mmHg 79%
    12:00 +11°C° 1.7 mm 4 m/s 743 mmHg 80%
    13:00 +12°C° 0.3 mm 3 m/s 743 mmHg 76%
    14:00 +13°C° 0.3 mm 3 m/s 743 mmHg 72%
    15:00 +14°C° 0.3 mm 3 m/s 742 mmHg 68%
    16:00 +13°C° 0.1 mm 3 m/s 743 mmHg 72%
    17:00 +13°C° 0.1 mm 3 m/s 743 mmHg 76%
    18:00 +12°C° 0.1 mm 4 m/s 743 mmHg 80%
    19:00 +12°C° 0.5 mm 4 m/s 743 mmHg 82%
    20:00 +12°C° 0.5 mm 4 m/s 743 mmHg 84%
    21:00 +12°C° 0.5 mm 5 m/s 743 mmHg 86%
    22:00 +11°C° 0.5 mm 6 m/s 743 mmHg 85%
    23:00 +11°C° 0.5 mm 6 m/s 743 mmHg 84%

    Demain, 21 Janvier, Lundi

    Heure Température Précipitation Vent Pression Humidité
    00:00 +11°C° 0.5 mm 7 m/s 744 mmHg 83%
    01:00 +11°C° 0.5 mm 8 m/s 744 mmHg 82%
    02:00 +10°C° 0.5 mm 9 m/s 744 mmHg 81%
    03:00 +9°C° 0.5 mm 10 m/s 744 mmHg 80%
    04:00 +9°C° 1.2 mm 10 m/s 745 mmHg 80%
    05:00 +9°C° 1.2 mm 11 m/s 745 mmHg 80%
    06:00 +9°C° 1.2 mm 11 m/s 745 mmHg 80%
    07:00 +9°C° 0.8 mm 10 m/s 746 mmHg 80%
    08:00 +10°C° 0.8 mm 8 m/s 747 mmHg 80%
    09:00 +9°C° 0.8 mm 7 m/s 747 mmHg 80%
    10:00 +10°C° 1.1 mm 7 m/s 748 mmHg 78%
    11:00 +10°C° 1.1 mm 6 m/s 748 mmHg 77%
    12:00 +10°C° 1.1 mm 6 m/s 748 mmHg 76%
    13:00 +10°C° 0.9 mm 5 m/s 749 mmHg 75%
    14:00 +10°C° 0.9 mm 5 m/s 749 mmHg 74%
    15:00 +10°C° 0.9 mm 5 m/s 749 mmHg 72%
    16:00 +11°C° 0.4 mm 4 m/s 750 mmHg 73%
    17:00 +10°C° 0.4 mm 3 m/s 750 mmHg 73%
    18:00 +10°C° 0.4 mm 3 m/s 750 mmHg 73%
    19:00 +10°C° 0.5 mm 2 m/s 750 mmHg 75%
    20:00 +9°C° 0.5 mm 2 m/s 751 mmHg 76%
    21:00 +10°C° 0.5 mm 1 m/s 751 mmHg 78%
    22:00 +9°C° 1 mm 2 m/s 751 mmHg 79%
    23:00 +9°C° 1 mm 2 m/s 751 mmHg 80%

    Après-demain, 22 Janvier, Mardi

    Heure Température Précipitation Vent Pression Humidité
    00:00 +8°C° 1 mm 3 m/s 751 mmHg 81%
    01:00 +8°C° 0.7 mm 3 m/s 751 mmHg 80%
    02:00 +8°C° 0.7 mm 3 m/s 751 mmHg 80%
    03:00 +8°C° 0.7 mm 3 m/s 750 mmHg 79%
    04:00 +8°C° 0.5 mm 3 m/s 750 mmHg 78%
    05:00 +7°C° 0.5 mm 4 m/s 750 mmHg 76%
    06:00 +7°C° 0.5 mm 4 m/s 750 mmHg 74%
    07:00 +8°C° 0.3 mm 4 m/s 750 mmHg 72%
    08:00 +8°C° 0.3 mm 5 m/s 751 mmHg 69%
    09:00 +9°C° 0.3 mm 5 m/s 751 mmHg 66%
    10:00 +9°C° 0.2 mm 6 m/s 750 mmHg 63%
    11:00 +10°C° 0.2 mm 7 m/s 750 mmHg 60%
    12:00 +11°C° 0.2 mm 7 m/s 750 mmHg 57%
    13:00 +11°C° 0 mm 7 m/s 749 mmHg 55%
    14:00 +11°C° 0 mm 7 m/s 748 mmHg 53%
    15:00 +11°C° 0 mm 7 m/s 747 mmHg 50%
    16:00 +10°C° 0 mm 7 m/s 747 mmHg 53%
    17:00 +9°C° 0 mm 7 m/s 747 mmHg 56%
    18:00 +8°C° 0 mm 7 m/s 746 mmHg 58%
    19:00 +8°C° 0.1 mm 7 m/s 746 mmHg 58%
    20:00 +8°C° 0.1 mm 7 m/s 746 mmHg 57%
    21:00 +8°C° 0.1 mm 7 m/s 746 mmHg 57%
    22:00 +8°C° 1.7 mm 7 m/s 745 mmHg 65%
    23:00 +7°C° 1.7 mm 8 m/s 744 mmHg 74%

    23 Janvier, Mercredi

    Heure Température Précipitation Vent Pression Humidité
    00:00 +7°C° 1.7 mm 8 m/s 743 mmHg 83%
    01:00 +7°C° 2.2 mm 9 m/s 743 mmHg 81%
    02:00 +8°C° 2.2 mm 9 m/s 742 mmHg 80%
    03:00 +8°C° 2.2 mm 10 m/s 741 mmHg 78%
    04:00 +8°C° 1.1 mm 10 m/s 741 mmHg 72%
    05:00 +8°C° 1.1 mm 11 m/s 741 mmHg 66%
    06:00 +9°C° 1.1 mm 12 m/s 741 mmHg 61%
    07:00 +9°C° 0.4 mm 12 m/s 741 mmHg 60%
    08:00 +9°C° 0.4 mm 12 m/s 741 mmHg 59%
    09:00 +9°C° 0.4 mm 12 m/s 742 mmHg 58%
    10:00 +9°C° 0.4 mm 13 m/s 741 mmHg 58%
    11:00 +10°C° 0.4 mm 13 m/s 740 mmHg 58%
    12:00 +10°C° 0.4 mm 14 m/s 740 mmHg 58%
    13:00 +10°C° 1.6 mm 15 m/s 739 mmHg 62%
    14:00 +9°C° 1.6 mm 15 m/s 739 mmHg 65%
    15:00 +9°C° 1.6 mm 16 m/s 738 mmHg 69%
    16:00 +9°C° 1.8 mm 15 m/s 738 mmHg 69%
    17:00 +9°C° 1.8 mm 13 m/s 738 mmHg 70%
    18:00 +8°C° 1.8 mm 12 m/s 739 mmHg 71%
    19:00 +8°C° 0.7 mm 12 m/s 739 mmHg 69%
    20:00 +8°C° 0.7 mm 12 m/s 739 mmHg 68%
    21:00 +8°C° 0.7 mm 13 m/s 739 mmHg 67%
    22:00 +8°C° 0.8 mm 13 m/s 739 mmHg 64%
    23:00 +8°C° 0.8 mm 13 m/s 739 mmHg 61%

    24 Janvier, Jeudi

    Heure Température Précipitation Vent Pression Humidité
    00:00 +8°C° 0.8 mm 13 m/s 739 mmHg 59%
    01:00 +8°C° 0.2 mm 13 m/s 739 mmHg 58%
    02:00 +8°C° 0.2 mm 13 m/s 739 mmHg 57%
    03:00 +8°C° 0.2 mm 13 m/s 738 mmHg 56%
    04:00 +7°C° 0.5 mm 12 m/s 738 mmHg 58%
    05:00 +7°C° 0.5 mm 12 m/s 738 mmHg 59%
    06:00 +7°C° 0.5 mm 11 m/s 738 mmHg 61%
    07:00 +7°C° 0.2 mm 11 m/s 739 mmHg 57%
    08:00 +7°C° 0.2 mm 11 m/s 739 mmHg 53%
    09:00 +7°C° 0.2 mm 11 m/s 740 mmHg 50%
    10:00 +7°C° 0.1 mm 10 m/s 740 mmHg 48%
    11:00 +7°C° 0.1 mm 10 m/s 740 mmHg 47%
    12:00 +8°C° 0.1 mm 9 m/s 740 mmHg 46%
    13:00 +8°C° 0.1 mm 9 m/s 741 mmHg 47%
    14:00 +7°C° 0.1 mm 8 m/s 741 mmHg 48%
    15:00 +7°C° 0.1 mm 8 m/s 741 mmHg 49%
    16:00 +8°C° 0.2 mm 7 m/s 742 mmHg 52%
    17:00 +8°C° 0.2 mm 6 m/s 743 mmHg 54%
    18:00 +7°C° 0.2 mm 6 m/s 743 mmHg 57%
    19:00 +7°C° 0.1 mm 5 m/s 744 mmHg 57%
    20:00 +7°C° 0.1 mm 5 m/s 745 mmHg 58%
    21:00 +7°C° 0.1 mm 5 m/s 745 mmHg 59%
    22:00 +7°C° 0.1 mm 5 m/s 745 mmHg 58%
    23:00 +7°C° 0.1 mm 4 m/s 746 mmHg 57%

    25 Janvier, Vendredi

    Heure Température Précipitation Vent Pression Humidité
    00:00 +7°C° 0.1 mm 4 m/s 746 mmHg 57%
    01:00 +7°C° 0 mm 4 m/s 746 mmHg 57%
    02:00 +7°C° 0 mm 4 m/s 746 mmHg 57%
    03:00 +7°C° 0 mm 4 m/s 746 mmHg 57%
    04:00 +7°C° 0.1 mm 4 m/s 746 mmHg 59%
    05:00 +7°C° 0.1 mm 4 m/s 746 mmHg 60%
    06:00 +7°C° 0.1 mm 4 m/s 747 mmHg 61%
    07:00 +8°C° 0.2 mm 3 m/s 747 mmHg 62%
    08:00 +8°C° 0.2 mm 3 m/s 748 mmHg 63%
    09:00 +9°C° 0.2 mm 2 m/s 748 mmHg 64%
    10:00 +9°C° 0.3 mm 2 m/s 749 mmHg 64%
    11:00 +9°C° 0.3 mm 2 m/s 749 mmHg 63%
    12:00 +9°C° 0.3 mm 3 m/s 750 mmHg 63%
    13:00 +10°C° 0.1 mm 2 m/s 750 mmHg 60%
    14:00 +10°C° 0.1 mm 2 m/s 750 mmHg 57%
    15:00 +10°C° 0.1 mm 2 m/s 750 mmHg 54%
    16:00 +10°C° 0 mm 2 m/s 751 mmHg 56%
    17:00 +10°C° 0 mm 1 m/s 751 mmHg 58%
    18:00 +10°C° 0 mm 1 m/s 752 mmHg 60%
    19:00 +8°C° 0 mm 2 m/s 752 mmHg 62%
    20:00 +8°C° 0 mm 2 m/s 753 mmHg 64%
    21:00 +8°C° 0 mm 3 m/s 753 mmHg 67%
    22:00 +8°C° 0 mm 3 m/s 753 mmHg 68%
    23:00 +7°C° 0 mm 3 m/s 754 mmHg 69%
    Voir plus